Weather History for KUZA - January, 2012

Change the Weather History Date:

Friday, January 6, 2012

  Actual Average Record
Temperature  
Mean Temperature 47 °F -  
Max Temperature 64 °F 50 °F - (-1)
Min Temperature 30 °F 32 °F - (-1)
Degree Days  
Heating Degree Days 18    
Moisture  
Dew Point 30 °F    
Average Humidity 58    
Maximum Humidity 85    
Minimum Humidity 26    
Precipitation  
Precipitation 0.00 in - - ()
Sea Level Pressure  
Sea Level Pressure 30.06 in    
Wind  
Wind Speed 5 mph (SW)    
Max Wind Speed 8 mph    
Max Gust Speed -    
Visibility 10 miles    
Events      
Averages and records for this station are not official NWS values.
T = Trace of Precipitation, MM = Missing Value Source: NWS Daily Summary

Daily Weather History Graph

Daily Weather History Graph

Search for Another Location

Airport or City:

Trip Planner

Search our weather history database for the weather conditions in past years. The results will help you decide how hot, cold, wet, or windy it might be!

Date:

Astronomy

Jan. 06, 2012 Rise Set
Actual Time 7:32 AM EST 5:27 PM EST
Civil Twilight 7:04 AM EST 5:55 PM EST
Nautical Twilight 6:33 AM EST 6:26 PM EST
Astronomical Twilight 6:02 AM EST 6:57 PM EST
Moon 3:17 PM EST (1/6) 5:10 AM EST (1/6)
Length of Visible Light 10h 50m
Length of Day
9h 54m
Waxing Gibbous, 93% of the Moon is Illuminated
Jan 6
Waxing Gibbous
Jan 9
Full
Jan 16
Last Quarter
Jan 23
New
Jan 30
First Quarter

Hourly Weather History & Observations

Time (EST) Temp. Windchill Dew Point Humidity Pressure Visibility Wind Dir Wind Speed Gust Speed Precip Events Conditions
12:54 AM 37.9 °F 32.1 °F 28.9 °F 70% 30.08 in 10.0 mi SW 8.1 mph - N/A   Clear
1:54 AM 37.0 °F 31.6 °F 27.0 °F 67% 30.07 in 10.0 mi SW 6.9 mph - N/A   Clear
3:54 AM 33.1 °F 27.7 °F 27.0 °F 78% 30.08 in 10.0 mi SSW 5.8 mph - N/A   Clear
4:54 AM 30.9 °F 27.5 °F 27.0 °F 85% 30.08 in 10.0 mi SSW 3.5 mph - N/A   Clear
5:54 AM 30.0 °F - 26.1 °F 85% 30.10 in 10.0 mi Calm Calm - N/A   Clear
6:54 AM 32.0 °F - 27.0 °F 82% 30.10 in 10.0 mi Calm Calm - N/A   Clear
7:54 AM 30.9 °F 27.5 °F 27.0 °F 85% 30.11 in 10.0 mi SW 3.5 mph - N/A   Clear
8:54 AM 39.0 °F - 30.9 °F 73% 30.12 in 10.0 mi Calm Calm - N/A   Clear
9:54 AM 46.0 °F - 28.9 °F 51% 30.12 in 10.0 mi Calm Calm - N/A   Clear
10:54 AM 52.0 °F - 30.0 °F 43% 30.11 in 10.0 mi SSW 5.8 mph - N/A   Clear
11:54 AM 55.9 °F - 30.9 °F 39% 30.09 in 10.0 mi SW 8.1 mph - N/A   Clear
12:54 PM 60.1 °F - 30.9 °F 33% 30.04 in 10.0 mi South 5.8 mph - N/A   Clear
1:54 PM 63.0 °F - 30.0 °F 29% 30.02 in 10.0 mi SW 8.1 mph - N/A   Clear
2:54 PM 64.9 °F - 28.9 °F 26% 30.01 in 10.0 mi West 6.9 mph - N/A   Clear
3:54 PM 64.0 °F - 30.0 °F 28% 30.01 in 10.0 mi SW 8.1 mph - N/A   Clear
5:54 PM 50.0 °F - 33.1 °F 52% 30.03 in 10.0 mi Calm Calm - N/A   Clear
6:54 PM 46.9 °F - 33.1 °F 59% 30.04 in 10.0 mi South 3.5 mph - N/A   Clear
7:54 PM 45.0 °F 41.8 °F 33.1 °F 63% 30.04 in 10.0 mi SSW 5.8 mph - N/A   Clear
8:54 PM 46.9 °F - 33.1 °F 59% 30.03 in 10.0 mi SSW 8.1 mph - N/A   Clear
9:54 PM 48.0 °F - 32.0 °F 54% 30.02 in 10.0 mi SSW 5.8 mph - N/A   Clear
10:54 PM 44.1 °F 40.1 °F 32.0 °F 63% 30.01 in 10.0 mi SW 6.9 mph - N/A   Clear
11:54 PM 45.0 °F 41.2 °F 30.0 °F 56% 29.99 in 10.0 mi SW 6.9 mph - N/A   Clear